Language: 


Des rapports , des résumés tant et plus, au choix de chacun....


Données statistiques de la station
Quotidien Rapport Janvier 12, 2017 Unités:  Métrique    Anglais   les deux
« Précédent Jour
Suivant Jour »
Quotidien Hebdomadaire Mensuel Annuel Actuel
  Haut: Bas: Moyen:
Température: 7.3 °C 0.0 °C 5.3 °C
Pt de rosée: 6.3 °C 0.8 °C 3.7 °C
Humidité: 98 % 0 % 89 %
Vitesse du vent: 34.6 km/h 0.0 km/h 10.8 km/h
Rafales: 42.8 km/h - -
Vent:- - SW
Pression: 1014.1 hPa 0.0 hPa -
Précipitation: 13.5 mm    
Historical Graphs
 
 
Données statistiques pour Janvier 12, 2017
Heure Température Point de rosée Pression Vent Vitesse du vent Refales Humidité Pluie (taux horaire)
00:02 5.5 °C 1.1 °C 1013.1 hPa WNW 11.1 km/h 14.0 km/h 73 % 0.0 mm
00:07 5.4 °C 1.1 °C 1013.1 hPa West 9.0 km/h 13.7 km/h 74 % 0.0 mm
00:12 5.4 °C 1.1 °C 1013.1 hPa West 5.0 km/h 13.7 km/h 74 % 0.0 mm
00:17 5.4 °C 1.1 °C 1013.1 hPa West 11.9 km/h 13.7 km/h 74 % 0.0 mm
00:22 5.5 °C 1.2 °C 1014.1 hPa NW 9.3 km/h 16.3 km/h 74 % 0.0 mm
00:27 5.6 °C 1.3 °C 1014.1 hPa West 16.9 km/h 16.9 km/h 74 % 0.0 mm
00:32 5.6 °C 1.3 °C 1014.1 hPa WNW 9.3 km/h 20.6 km/h 74 % 0.0 mm
00:37 5.6 °C 1.3 °C 1014.1 hPa West 14.0 km/h 20.9 km/h 74 % 0.0 mm
00:42 5.6 °C 1.3 °C 1014.1 hPa West 13.7 km/h 20.9 km/h 74 % 0.0 mm
00:47 5.6 °C 1.3 °C 1014.1 hPa West 14.3 km/h 21.2 km/h 74 % 0.0 mm
00:52 5.6 °C 1.3 °C 1014.1 hPa WSW 10.5 km/h 21.2 km/h 74 % 0.0 mm
00:57 5.6 °C 1.3 °C 1014.1 hPa West 16.6 km/h 17.2 km/h 74 % 0.0 mm
01:02 5.5 °C 1.2 °C 1014.1 hPa WSW 8.7 km/h 16.9 km/h 74 % 0.0 mm
01:07 5.5 °C 1.4 °C 1014.1 hPa West 13.7 km/h 17.2 km/h 75 % 0.0 mm
01:12 5.5 °C 1.4 °C 1014.1 hPa West 9.3 km/h 17.7 km/h 75 % 0.0 mm
01:17 5.5 °C 1.4 °C 1014.1 hPa WSW 9.7 km/h 17.7 km/h 75 % 0.0 mm
01:22 5.5 °C 1.4 °C 1014.1 hPa WSW 9.0 km/h 16.3 km/h 75 % 0.0 mm
01:27 5.5 °C 1.6 °C 1014.1 hPa WSW 12.2 km/h 20.6 km/h 76 % 0.0 mm
01:32 5.5 °C 1.6 °C 1014.1 hPa West 10.8 km/h 20.6 km/h 76 % 0.0 mm
01:37 5.5 °C 1.6 °C 1014.1 hPa WSW 8.7 km/h 19.8 km/h 76 % 0.0 mm
01:42 5.5 °C 1.6 °C 1014.1 hPa WSW 10.1 km/h 19.8 km/h 76 % 0.0 mm
01:47 5.5 °C 1.6 °C 1014.1 hPa SSW 13.7 km/h 17.7 km/h 76 % 0.0 mm
01:52 5.6 °C 1.7 °C 1014.1 hPa WSW 12.2 km/h 17.7 km/h 76 % 0.0 mm
01:57 5.6 °C 1.7 °C 1014.1 hPa West 15.8 km/h 16.6 km/h 76 % 0.0 mm
02:02 0.0 °C 1.7 °C 0.0 hPa WSW 8.7 km/h 14.0 km/h 0 % 0.0 mm
02:07 5.3 °C 1.4 °C 1014.1 hPa WSW 6.1 km/h 9.7 km/h 76 % 0.0 mm
02:12 5.1 °C 1.4 °C 1014.1 hPa WSW 6.9 km/h 10.5 km/h 77 % 0.0 mm
02:17 5.0 °C 1.3 °C 1014.1 hPa West 7.2 km/h 10.5 km/h 77 % 0.0 mm
02:22 4.9 °C 1.4 °C 1014.1 hPa WSW 9.3 km/h 9.3 km/h 78 % 0.0 mm
02:27 4.8 °C 1.4 °C 1014.1 hPa WSW 9.3 km/h 9.7 km/h 79 % 0.0 mm
02:32 4.7 °C 1.6 °C 1014.1 hPa WSW 8.7 km/h 11.6 km/h 80 % 0.0 mm
02:37 4.8 °C 1.8 °C 1014.1 hPa West 9.0 km/h 11.9 km/h 81 % 0.0 mm
02:42 4.8 °C 1.8 °C 1014.1 hPa WSW 9.3 km/h 11.9 km/h 81 % 0.0 mm
02:47 4.8 °C 1.8 °C 1014.1 hPa West 7.6 km/h 11.9 km/h 81 % 0.0 mm
02:52 4.7 °C 1.7 °C 1014.1 hPa WSW 9.0 km/h 10.5 km/h 81 % 0.0 mm
02:57 4.7 °C 1.9 °C 1014.1 hPa West 9.3 km/h 15.8 km/h 82 % 0.0 mm
03:02 4.7 °C 1.9 °C 1014.1 hPa WSW 8.7 km/h 15.8 km/h 82 % 0.0 mm
03:07 4.7 °C 1.9 °C 1014.1 hPa West 10.1 km/h 13.0 km/h 82 % 0.0 mm
03:12 4.6 °C 1.8 °C 1014.1 hPa WSW 6.1 km/h 13.0 km/h 82 % 0.0 mm
03:17 4.5 °C 1.6 °C 1014.1 hPa WSW 10.1 km/h 11.6 km/h 81 % 0.0 mm
03:22 4.3 °C 1.3 °C 1014.1 hPa WSW 6.9 km/h 10.1 km/h 81 % 0.0 mm
03:27 4.3 °C 1.3 °C 1014.1 hPa West 10.1 km/h 10.1 km/h 81 % 0.0 mm
03:32 4.2 °C 1.4 °C 1014.1 hPa WSW 6.4 km/h 10.1 km/h 82 % 0.0 mm
03:37 4.0 °C 1.2 °C 1014.1 hPa WSW 7.9 km/h 9.7 km/h 82 % 0.0 mm
03:42 3.9 °C 1.1 °C 1014.1 hPa WSW 6.9 km/h 9.0 km/h 82 % 0.0 mm
03:47 4.0 °C 1.4 °C 1014.1 hPa WSW 9.3 km/h 9.7 km/h 83 % 0.0 mm
03:52 4.0 °C 1.6 °C 1014.1 hPa West 7.9 km/h 11.6 km/h 84 % 0.0 mm
03:57 4.1 °C 1.7 °C 1014.1 hPa WSW 8.7 km/h 14.0 km/h 84 % 0.0 mm
04:02 4.1 °C 1.8 °C 1014.1 hPa WSW 11.1 km/h 14.0 km/h 85 % 0.0 mm
04:07 4.2 °C 1.9 °C 1014.1 hPa WSW 9.3 km/h 12.2 km/h 85 % 0.0 mm
04:12 4.3 °C 2.0 °C 1014.1 hPa WSW 10.5 km/h 11.9 km/h 85 % 0.0 mm
04:17 4.4 °C 2.3 °C 1014.1 hPa WSW 10.1 km/h 14.3 km/h 86 % 0.0 mm
04:22 4.5 °C 2.4 °C 1013.1 hPa WSW 11.9 km/h 14.3 km/h 86 % 0.0 mm
04:27 4.6 °C 2.4 °C 1013.1 hPa WSW 7.9 km/h 12.6 km/h 86 % 0.0 mm
04:32 4.5 °C 2.4 °C 1013.1 hPa WSW 8.7 km/h 12.6 km/h 86 % 0.0 mm
04:37 4.5 °C 2.2 °C 1013.1 hPa WSW 9.0 km/h 11.9 km/h 85 % 0.0 mm
04:42 4.5 °C 2.2 °C 1013.1 hPa WSW 13.0 km/h 13.0 km/h 85 % 0.0 mm
04:47 4.5 °C 2.4 °C 1013.1 hPa WSW 12.6 km/h 13.7 km/h 86 % 0.0 mm
04:52 4.7 °C 2.6 °C 1013.1 hPa West 13.0 km/h 14.0 km/h 86 % 0.0 mm
04:57 4.7 °C 2.6 °C 1013.1 hPa West 10.1 km/h 16.9 km/h 86 % 0.0 mm
05:02 4.8 °C 2.5 °C 1013.1 hPa WSW 14.0 km/h 16.9 km/h 85 % 0.0 mm
05:07 4.8 °C 2.5 °C 1013.1 hPa West 9.7 km/h 14.0 km/h 85 % 0.0 mm
05:12 4.7 °C 2.2 °C 1013.1 hPa West 9.7 km/h 14.0 km/h 84 % 0.0 mm
05:17 4.6 °C 2.1 °C 1013.1 hPa West 11.9 km/h 13.7 km/h 84 % 0.0 mm
05:22 4.6 °C 2.1 °C 1012.1 hPa WSW 12.2 km/h 14.0 km/h 84 % 0.0 mm
05:27 4.5 °C 2.1 °C 1012.1 hPa WSW 13.0 km/h 14.0 km/h 84 % 0.0 mm
05:32 4.4 °C 2.1 °C 1012.1 hPa WSW 9.7 km/h 13.0 km/h 85 % 0.0 mm
05:37 4.4 °C 2.1 °C 1013.1 hPa WSW 9.0 km/h 14.3 km/h 85 % 0.0 mm
05:42 4.5 °C 2.4 °C 1013.1 hPa WSW 8.7 km/h 14.3 km/h 86 % 0.0 mm
05:47 4.5 °C 2.4 °C 1013.1 hPa West 11.9 km/h 15.4 km/h 86 % 0.0 mm
05:52 4.6 °C 2.4 °C 1012.1 hPa WSW 9.3 km/h 15.4 km/h 86 % 0.0 mm
05:57 4.6 °C 2.4 °C 1012.1 hPa WSW 9.3 km/h 13.0 km/h 86 % 0.0 mm
06:02 4.6 °C 2.4 °C 1012.1 hPa WSW 9.3 km/h 13.0 km/h 86 % 0.0 mm
06:08 4.5 °C 2.4 °C 1013.1 hPa WSW 9.3 km/h 13.0 km/h 86 % 0.0 mm
06:12 4.5 °C 2.6 °C 1013.1 hPa WSW 12.2 km/h 12.2 km/h 87 % 0.0 mm
06:17 4.6 °C 2.6 °C 1013.1 hPa WSW 10.1 km/h 13.0 km/h 87 % 0.0 mm
06:22 4.6 °C 2.6 °C 1013.1 hPa WSW 6.4 km/h 13.0 km/h 87 % 0.0 mm
06:27 4.5 °C 2.6 °C 1013.1 hPa WSW 6.4 km/h 9.0 km/h 87 % 0.0 mm
06:32 4.3 °C 2.3 °C 1013.1 hPa WSW 6.4 km/h 9.3 km/h 87 % 0.0 mm
06:37 4.3 °C 2.3 °C 1013.1 hPa WSW 9.0 km/h 9.3 km/h 87 % 0.0 mm
06:38 4.3 °C 2.3 °C 1013.1 hPa WSW 9.3 km/h 9.3 km/h 87 % 0.0 mm
06:43 4.3 °C 2.3 °C 1013.1 hPa WSW 6.1 km/h 9.3 km/h 87 % 0.0 mm
06:48 4.3 °C 2.3 °C 1013.1 hPa WSW 7.2 km/h 9.3 km/h 87 % 0.0 mm
06:53 4.4 °C 2.6 °C 1013.1 hPa WSW 9.3 km/h 9.7 km/h 88 % 0.0 mm
06:58 4.5 °C 2.7 °C 1013.1 hPa WSW 10.1 km/h 10.5 km/h 88 % 0.0 mm
07:03 4.6 °C 2.8 °C 1013.1 hPa SW 8.7 km/h 11.9 km/h 88 % 0.0 mm
07:08 4.6 °C 2.9 °C 1012.1 hPa SW 9.7 km/h 12.2 km/h 89 % 0.0 mm
07:13 4.8 °C 3.2 °C 1012.1 hPa SSW 9.7 km/h 12.2 km/h 89 % 0.0 mm
07:18 4.9 °C 3.2 °C 1012.1 hPa WSW 6.4 km/h 12.2 km/h 89 % 0.0 mm
07:23 4.8 °C 3.2 °C 1012.1 hPa WSW 9.0 km/h 9.7 km/h 89 % 0.0 mm
07:28 4.7 °C 2.9 °C 1012.1 hPa WSW 6.9 km/h 9.3 km/h 88 % 0.0 mm
07:33 4.6 °C 2.8 °C 1012.1 hPa SW 7.9 km/h 9.3 km/h 88 % 0.0 mm
07:38 4.6 °C 2.9 °C 1012.1 hPa WSW 8.7 km/h 9.7 km/h 89 % 0.0 mm
07:43 4.7 °C 3.1 °C 1012.1 hPa SSW 11.6 km/h 11.6 km/h 89 % 0.0 mm
07:48 4.8 °C 3.3 °C 1012.1 hPa WSW 8.7 km/h 11.6 km/h 90 % 0.0 mm
07:53 4.9 °C 3.4 °C 1012.1 hPa SW 7.2 km/h 10.5 km/h 90 % 0.0 mm
07:58 4.9 °C 3.4 °C 1012.1 hPa WSW 9.0 km/h 13.0 km/h 90 % 0.0 mm
08:03 4.9 °C 3.4 °C 1012.1 hPa WSW 8.7 km/h 15.4 km/h 90 % 0.0 mm
08:08 5.0 °C 3.5 °C 1012.1 hPa WSW 11.6 km/h 15.4 km/h 90 % 0.0 mm
08:13 5.1 °C 3.6 °C 1012.1 hPa WSW 9.0 km/h 14.0 km/h 90 % 0.0 mm
08:18 5.1 °C 3.6 °C 1012.1 hPa WSW 12.2 km/h 14.0 km/h 90 % 0.0 mm
08:23 5.2 °C 3.7 °C 1012.1 hPa WSW 11.9 km/h 13.7 km/h 90 % 0.0 mm
08:28 5.3 °C 3.6 °C 1012.1 hPa WSW 10.5 km/h 13.7 km/h 89 % 0.0 mm
08:33 5.3 °C 3.6 °C 1012.1 hPa SW 9.3 km/h 16.3 km/h 89 % 0.0 mm
08:38 5.3 °C 3.4 °C 1012.1 hPa SW 12.2 km/h 16.3 km/h 88 % 0.0 mm
08:43 5.3 °C 3.4 °C 1012.1 hPa WSW 19.5 km/h 20.9 km/h 88 % 0.0 mm
08:48 5.4 °C 3.4 °C 1012.1 hPa WSW 17.7 km/h 20.9 km/h 87 % 0.0 mm
08:53 5.4 °C 3.4 °C 1011.1 hPa WSW 12.6 km/h 20.9 km/h 87 % 0.0 mm
08:58 5.3 °C 3.3 °C 1011.1 hPa WSW 14.0 km/h 20.9 km/h 87 % 0.0 mm
09:03 5.3 °C 3.3 °C 1011.1 hPa WSW 16.6 km/h 20.9 km/h 87 % 0.0 mm
09:08 5.3 °C 3.1 °C 1012.1 hPa WSW 11.9 km/h 20.9 km/h 86 % 0.0 mm
09:13 5.3 °C 3.1 °C 1012.1 hPa WSW 13.0 km/h 20.1 km/h 86 % 0.0 mm
09:18 5.3 °C 3.1 °C 1012.1 hPa WSW 9.7 km/h 19.8 km/h 86 % 0.0 mm
09:23 5.2 °C 3.1 °C 1011.1 hPa WSW 8.7 km/h 13.0 km/h 86 % 0.0 mm
09:28 5.1 °C 2.8 °C 1011.1 hPa WSW 9.3 km/h 10.5 km/h 85 % 0.0 mm
09:33 5.0 °C 2.8 °C 1011.1 hPa WSW 9.3 km/h 10.5 km/h 86 % 0.0 mm
09:38 5.0 °C 2.8 °C 1012.1 hPa WSW 9.7 km/h 11.6 km/h 86 % 0.0 mm
09:43 5.0 °C 2.8 °C 1012.1 hPa WSW 9.7 km/h 11.9 km/h 86 % 0.0 mm
09:48 5.1 °C 2.9 °C 1012.1 hPa WSW 8.7 km/h 11.9 km/h 86 % 0.0 mm
09:53 5.2 °C 3.2 °C 1012.1 hPa WSW 8.7 km/h 11.9 km/h 87 % 0.0 mm
09:58 5.2 °C 3.2 °C 1012.1 hPa WSW 6.4 km/h 11.6 km/h 87 % 0.0 mm
10:03 5.3 °C 3.3 °C 1012.1 hPa SSW 9.3 km/h 10.5 km/h 87 % 0.0 mm
10:08 5.5 °C 3.5 °C 1011.1 hPa SW 9.3 km/h 10.1 km/h 87 % 0.0 mm
10:13 5.6 °C 3.6 °C 1011.1 hPa SSW 9.7 km/h 10.5 km/h 87 % 0.0 mm
10:18 5.8 °C 3.6 °C 1011.1 hPa SSW 7.9 km/h 13.7 km/h 86 % 0.0 mm
10:23 5.9 °C 3.6 °C 1011.1 hPa SSW 4.7 km/h 13.7 km/h 85 % 0.0 mm
10:28 6.0 °C 3.7 °C 1011.1 hPa South 4.3 km/h 10.5 km/h 85 % 0.0 mm
10:33 6.0 °C 3.7 °C 1011.1 hPa SSW 4.0 km/h 11.9 km/h 85 % 0.0 mm
10:38 6.0 °C 3.7 °C 1011.1 hPa South 6.9 km/h 13.0 km/h 85 % 0.0 mm
10:43 6.1 °C 3.7 °C 1011.1 hPa SSW 9.0 km/h 15.4 km/h 85 % 0.0 mm
10:48 6.2 °C 3.8 °C 1011.1 hPa South 10.1 km/h 15.4 km/h 85 % 0.0 mm
10:53 6.2 °C 3.8 °C 1011.1 hPa SSW 5.5 km/h 14.0 km/h 85 % 0.0 mm
10:58 6.3 °C 4.1 °C 1011.1 hPa WSW 13.7 km/h 16.9 km/h 86 % 0.0 mm
11:03 6.3 °C 4.1 °C 1011.1 hPa SSW 11.9 km/h 20.9 km/h 86 % 0.0 mm
11:08 6.4 °C 4.4 °C 1010.0 hPa SSW 9.7 km/h 20.9 km/h 87 % 0.0 mm
11:14 6.6 °C 4.6 °C 1010.0 hPa SSW 10.1 km/h 16.3 km/h 87 % 0.0 mm
11:19 6.6 °C 4.6 °C 1010.0 hPa SSW 12.6 km/h 16.6 km/h 87 % 0.0 mm
11:24 6.7 °C 4.8 °C 1010.0 hPa South 8.7 km/h 16.6 km/h 88 % 0.0 mm
11:29 6.8 °C 4.9 °C 1010.0 hPa WSW 9.0 km/h 14.0 km/h 88 % 0.0 mm
11:34 6.8 °C 4.9 °C 1010.0 hPa South 12.6 km/h 17.2 km/h 88 % 0.0 mm
11:39 6.8 °C 4.9 °C 1009.0 hPa SW 13.0 km/h 17.2 km/h 88 % 0.0 mm
11:44 6.8 °C 4.9 °C 1009.0 hPa WSW 7.9 km/h 16.6 km/h 88 % 0.0 mm
11:49 6.8 °C 5.1 °C 1009.0 hPa SSW 16.6 km/h 20.9 km/h 89 % 0.0 mm
11:54 6.8 °C 5.1 °C 1009.0 hPa SSW 11.9 km/h 20.9 km/h 89 % 0.0 mm
11:59 6.8 °C 5.2 °C 1009.0 hPa WSW 9.0 km/h 17.7 km/h 90 % 0.0 mm
12:04 6.8 °C 5.2 °C 1009.0 hPa WSW 10.5 km/h 17.7 km/h 90 % 0.0 mm
12:09 6.8 °C 5.4 °C 1009.0 hPa SSW 10.5 km/h 20.9 km/h 91 % 0.0 mm
12:14 6.8 °C 5.4 °C 1009.0 hPa SW 8.7 km/h 20.9 km/h 91 % 0.0 mm
12:19 6.7 °C 5.4 °C 1009.0 hPa SSW 13.0 km/h 19.5 km/h 92 % 0.0 mm
12:24 6.7 °C 5.4 °C 1009.0 hPa SSW 11.6 km/h 15.4 km/h 92 % 0.0 mm
12:29 6.6 °C 5.5 °C 1009.0 hPa SW 10.1 km/h 15.4 km/h 93 % 0.0 mm
12:34 6.7 °C 5.6 °C 1009.0 hPa SSW 6.9 km/h 13.0 km/h 93 % 0.0 mm
12:39 6.8 °C 5.9 °C 1008.0 hPa SSW 3.2 km/h 13.0 km/h 94 % 0.0 mm
12:44 6.8 °C 5.9 °C 1008.0 hPa South 4.7 km/h 10.1 km/h 94 % 0.0 mm
12:49 6.8 °C 5.9 °C 1008.0 hPa South 6.9 km/h 12.6 km/h 94 % 0.0 mm
12:54 6.8 °C 5.9 °C 1007.0 hPa SSW 5.0 km/h 12.6 km/h 94 % 0.0 mm
12:59 6.9 °C 6.1 °C 1007.0 hPa South 6.1 km/h 12.2 km/h 94 % 0.0 mm
13:04 7.1 °C 6.2 °C 1007.0 hPa South 7.9 km/h 13.0 km/h 94 % 0.0 mm
13:09 7.1 °C 6.2 °C 1007.0 hPa South 9.0 km/h 13.0 km/h 94 % 0.0 mm
13:14 7.1 °C 6.2 °C 1007.0 hPa South 4.0 km/h 16.6 km/h 94 % 0.0 mm
13:19 7.1 °C 6.2 °C 1007.0 hPa SSW 10.1 km/h 16.6 km/h 94 % 0.0 mm
13:24 7.1 °C 6.2 °C 1006.0 hPa SSW 12.6 km/h 12.6 km/h 94 % 0.0 mm
13:29 7.1 °C 6.2 °C 1006.0 hPa SW 6.4 km/h 12.6 km/h 94 % 0.0 mm
13:34 7.2 °C 6.3 °C 1006.0 hPa SSW 9.0 km/h 15.8 km/h 94 % 0.0 mm
13:39 7.3 °C 6.3 °C 1006.0 hPa SSW 2.1 km/h 17.7 km/h 94 % 0.0 mm
13:44 7.3 °C 6.3 °C 1006.0 hPa SSE 10.1 km/h 17.7 km/h 94 % 0.0 mm
13:49 7.3 °C 6.3 °C 1006.0 hPa SW 5.8 km/h 16.3 km/h 94 % 0.0 mm
13:54 7.3 °C 6.3 °C 1005.0 hPa WSW 11.9 km/h 16.3 km/h 94 % 0.0 mm
13:59 7.3 °C 6.3 °C 1005.0 hPa South 6.1 km/h 16.6 km/h 94 % 0.0 mm
14:04 7.3 °C 6.3 °C 1005.0 hPa South 12.6 km/h 16.6 km/h 94 % 0.0 mm
14:09 7.2 °C 6.1 °C 1005.0 hPa South 10.5 km/h 16.6 km/h 93 % 0.0 mm
14:14 7.2 °C 6.1 °C 1005.0 hPa SW 9.3 km/h 19.8 km/h 93 % 0.0 mm
14:19 7.2 °C 6.1 °C 1005.0 hPa Calm   19.8 km/h 93 % 0.0 mm
14:24 7.1 °C 6.0 °C 1003.9 hPa SSW 10.1 km/h 16.6 km/h 93 % 0.0 mm
14:29 7.1 °C 6.2 °C 1003.9 hPa SSW 11.9 km/h 16.6 km/h 94 % 0.0 mm
14:34 6.9 °C 5.9 °C 1003.9 hPa SSW 14.0 km/h 21.9 km/h 93 % 0.0 mm
14:39 6.9 °C 5.9 °C 1001.9 hPa SW 8.7 km/h 21.9 km/h 93 % 0.0 mm
14:44 6.9 °C 5.9 °C 1001.9 hPa SW 9.3 km/h 20.1 km/h 93 % 0.0 mm
14:49 6.9 °C 5.9 °C 1001.9 hPa SSW 10.5 km/h 19.1 km/h 93 % 0.0 mm
14:54 6.8 °C 5.8 °C 1002.9 hPa SSW 10.1 km/h 20.1 km/h 93 % 0.0 mm
14:59 6.8 °C 5.8 °C 1002.9 hPa SSW 11.9 km/h 20.1 km/h 93 % 0.0 mm
15:04 6.8 °C 5.9 °C 1002.9 hPa SSW 11.9 km/h 18.0 km/h 94 % 0.0 mm
15:09 6.8 °C 5.9 °C 1001.9 hPa SSW 15.8 km/h 17.7 km/h 94 % 0.0 mm
15:14 6.8 °C 5.9 °C 1001.9 hPa SW 16.3 km/h 20.6 km/h 94 % 0.0 mm
15:20 6.8 °C 5.9 °C 1001.9 hPa WSW 9.0 km/h 20.6 km/h 94 % 0.0 mm
15:25 6.8 °C 5.9 °C 1000.9 hPa SSW 13.7 km/h 17.7 km/h 94 % 0.0 mm
15:30 6.8 °C 5.9 °C 1000.9 hPa SSW 6.4 km/h 15.1 km/h 94 % 0.0 mm
15:35 6.8 °C 5.9 °C 1000.9 hPa SW 13.7 km/h 16.3 km/h 94 % 0.0 mm
15:40 6.8 °C 6.1 °C 1000.9 hPa SSW 16.3 km/h 26.2 km/h 95 % 0.0 mm
15:45 6.8 °C 6.1 °C 1000.9 hPa South 12.6 km/h 26.2 km/h 95 % 0.0 mm
15:50 6.8 °C 6.1 °C 1000.9 hPa South 9.3 km/h 17.2 km/h 95 % 0.0 mm
15:55 6.8 °C 6.1 °C 999.9 hPa SSW 6.4 km/h 14.0 km/h 95 % 0.0 mm
16:00 6.8 °C 6.1 °C 999.9 hPa South 6.1 km/h 15.8 km/h 95 % 0.0 mm
16:05 6.8 °C 6.1 °C 999.9 hPa South 9.7 km/h 15.8 km/h 95 % 0.0 mm
16:10 6.8 °C 6.1 °C 998.9 hPa South 9.0 km/h 17.2 km/h 95 % 0.0 mm
16:15 6.8 °C 6.0 °C 998.9 hPa SW 13.0 km/h 17.2 km/h 95 % 0.0 mm
16:20 6.8 °C 6.0 °C 998.9 hPa SSW 13.0 km/h 16.9 km/h 95 % 0.0 mm
16:25 6.8 °C 6.0 °C 998.9 hPa SSW 13.7 km/h 19.8 km/h 95 % 0.0 mm
16:30 6.8 °C 6.0 °C 998.9 hPa South 9.7 km/h 19.8 km/h 95 % 0.0 mm
16:35 6.8 °C 6.0 °C 998.9 hPa SSW 14.0 km/h 16.3 km/h 95 % 0.0 mm
16:40 6.8 °C 6.0 °C 997.9 hPa South 9.0 km/h 17.7 km/h 95 % 0.0 mm
16:45 6.8 °C 6.0 °C 997.9 hPa SSW 6.9 km/h 20.9 km/h 95 % 0.3 mm
16:50 6.7 °C 5.9 °C 997.9 hPa South 10.1 km/h 20.9 km/h 95 % 0.3 mm
16:55 6.7 °C 5.9 °C 996.8 hPa South 13.0 km/h 17.7 km/h 95 % 0.3 mm
17:00 6.7 °C 5.9 °C 996.8 hPa South 11.6 km/h 17.2 km/h 95 % 0.3 mm
17:05 6.7 °C 5.9 °C 996.8 hPa SSW 10.5 km/h 15.1 km/h 95 % 0.3 mm
17:10 6.7 °C 5.9 °C 996.8 hPa South 9.0 km/h 13.7 km/h 95 % 0.3 mm
17:15 6.6 °C 5.8 °C 996.8 hPa South 9.0 km/h 13.0 km/h 95 % 0.5 mm
17:20 6.6 °C 5.8 °C 996.8 hPa SSW 11.6 km/h 15.8 km/h 95 % 0.5 mm
17:25 6.4 °C 5.7 °C 996.2 hPa South 10.1 km/h 16.6 km/h 95 % 1.0 mm
17:30 6.4 °C 5.9 °C 996.2 hPa South 11.6 km/h 16.6 km/h 96 % 1.0 mm
17:35 6.4 °C 5.8 °C 996.2 hPa SSE 6.4 km/h 13.7 km/h 96 % 1.0 mm
17:40 6.4 °C 5.8 °C 995.1 hPa South 6.9 km/h 15.4 km/h 96 % 1.5 mm
17:45 6.4 °C 5.8 °C 995.1 hPa SSW 7.6 km/h 15.4 km/h 96 % 1.5 mm
17:50 6.4 °C 5.8 °C 995.1 hPa South 16.3 km/h 16.9 km/h 96 % 1.8 mm
17:55 6.3 °C 5.7 °C 995.1 hPa South 17.2 km/h 17.2 km/h 96 % 2.0 mm
18:00 6.3 °C 5.7 °C 995.1 hPa SSW 12.6 km/h 22.7 km/h 96 % 2.3 mm
18:05 6.3 °C 5.7 °C 995.1 hPa SSW 17.2 km/h 22.7 km/h 96 % 2.3 mm
18:10 6.2 °C 5.6 °C 994.1 hPa SSW 5.8 km/h 18.3 km/h 96 % 2.5 mm
18:15 6.2 °C 5.6 °C 994.1 hPa SSW 10.5 km/h 18.3 km/h 96 % 2.8 mm
18:20 6.2 °C 5.6 °C 994.1 hPa WSW 15.4 km/h 17.2 km/h 96 % 3.0 mm
18:25 6.2 °C 5.6 °C 993.1 hPa South 10.5 km/h 26.2 km/h 96 % 2.8 mm
18:30 6.1 °C 5.5 °C 993.1 hPa SSW 13.7 km/h 26.2 km/h 96 % 2.8 mm
18:35 6.0 °C 5.4 °C 993.1 hPa South 12.2 km/h 16.9 km/h 96 % 3.0 mm
18:40 5.9 °C 5.3 °C 992.1 hPa SSW 6.1 km/h 16.9 km/h 96 % 2.8 mm
18:45 5.9 °C 5.3 °C 992.1 hPa SSW 7.9 km/h 16.3 km/h 96 % 2.8 mm
18:50 5.8 °C 5.2 °C 992.1 hPa South 7.9 km/h 16.9 km/h 96 % 2.5 mm
18:55 5.8 °C 5.2 °C 991.1 hPa SSW 9.7 km/h 16.9 km/h 96 % 3.0 mm
19:00 5.8 °C 5.2 °C 991.1 hPa South 11.6 km/h 15.1 km/h 96 % 2.8 mm
19:05 5.8 °C 5.2 °C 991.1 hPa South 13.7 km/h 16.3 km/h 96 % 3.3 mm
19:10 5.7 °C 5.1 °C 990.1 hPa SSW 17.2 km/h 24.5 km/h 96 % 3.3 mm
19:15 5.7 °C 5.1 °C 990.1 hPa SSW 17.2 km/h 24.5 km/h 96 % 3.0 mm
19:20 5.6 °C 5.0 °C 990.1 hPa SSW 9.3 km/h 23.3 km/h 96 % 3.0 mm
19:25 5.5 °C 4.9 °C 989.1 hPa South 8.7 km/h 20.6 km/h 96 % 3.6 mm
19:30 5.5 °C 4.9 °C 989.1 hPa SSW 20.1 km/h 31.4 km/h 96 % 3.6 mm
19:35 5.3 °C 4.7 °C 989.1 hPa South 19.1 km/h 31.4 km/h 96 % 4.1 mm
19:40 5.3 °C 4.7 °C 988.0 hPa South 13.7 km/h 23.0 km/h 96 % 4.1 mm
19:45 5.3 °C 4.7 °C 988.0 hPa South 13.7 km/h 23.0 km/h 96 % 4.1 mm
19:50 5.3 °C 4.7 °C 988.0 hPa South 10.5 km/h 19.5 km/h 96 % 4.3 mm
19:55 5.2 °C 4.6 °C 987.0 hPa South 9.7 km/h 20.9 km/h 96 % 4.1 mm
20:00 5.2 °C 4.6 °C 987.0 hPa SSE 12.6 km/h 20.9 km/h 96 % 4.3 mm
20:05 5.2 °C 4.6 °C 987.0 hPa SSE 9.0 km/h 19.8 km/h 96 % 4.3 mm
20:11 5.1 °C 4.5 °C 986.0 hPa SSE 12.6 km/h 19.5 km/h 96 % 4.3 mm
20:16 5.1 °C 4.5 °C 986.0 hPa SE 7.2 km/h 17.7 km/h 96 % 3.8 mm
20:21 5.1 °C 4.5 °C 986.0 hPa SE 7.9 km/h 17.7 km/h 96 % 4.1 mm
20:26 5.1 °C 4.5 °C 985.0 hPa SE 12.6 km/h 13.0 km/h 96 % 3.8 mm
20:30 5.1 °C 4.5 °C 985.0 hPa ESE 5.5 km/h 12.6 km/h 96 % 3.6 mm
20:36 5.1 °C 4.7 °C 985.0 hPa East 10.5 km/h 12.6 km/h 97 % 2.8 mm
20:41 5.1 °C 4.7 °C 983.0 hPa East 9.3 km/h 13.7 km/h 97 % 2.5 mm
20:46 5.1 °C 4.7 °C 983.0 hPa SE 12.2 km/h 16.3 km/h 97 % 2.8 mm
20:51 5.2 °C 4.8 °C 983.0 hPa SSE 6.1 km/h 16.3 km/h 97 % 2.3 mm
20:56 5.2 °C 4.8 °C 983.0 hPa SE 6.9 km/h 14.0 km/h 97 % 2.0 mm
21:01 5.3 °C 4.8 °C 983.0 hPa SE 4.0 km/h 14.0 km/h 97 % 1.5 mm
21:06 5.3 °C 4.8 °C 983.0 hPa SE 6.9 km/h 10.5 km/h 97 % 1.3 mm
21:11 5.4 °C 4.9 °C 981.9 hPa SSE 2.6 km/h 13.0 km/h 97 % 1.0 mm
21:16 5.4 °C 4.9 °C 981.9 hPa SE 5.0 km/h 13.0 km/h 97 % 1.0 mm
21:21 5.5 °C 5.1 °C 981.9 hPa SE 5.5 km/h 9.3 km/h 97 % 0.8 mm
21:26 5.5 °C 5.1 °C 979.9 hPa ESE 5.5 km/h 7.9 km/h 97 % 0.3 mm
21:31 5.5 °C 5.1 °C 979.9 hPa East 5.0 km/h 6.9 km/h 97 % 0.8 mm
21:36 5.5 °C 5.1 °C 979.9 hPa Calm   6.1 km/h 97 % 1.0 mm
21:41 5.5 °C 5.1 °C 981.9 hPa NE 5.5 km/h 6.1 km/h 97 % 1.3 mm
21:46 5.5 °C 5.1 °C 981.9 hPa NNE 4.7 km/h 7.9 km/h 97 % 1.0 mm
21:51 5.6 °C 5.2 °C 981.9 hPa North 23.3 km/h 23.3 km/h 97 % 1.0 mm
21:56 4.5 °C 4.1 °C 980.9 hPa North 17.7 km/h 32.0 km/h 97 % 1.0 mm
22:01 3.6 °C 2.9 °C 980.9 hPa NNW 20.1 km/h 34.6 km/h 96 % 2.0 mm
22:06 2.9 °C 2.1 °C 980.9 hPa North 13.7 km/h 35.6 km/h 94 % 2.0 mm
22:11 2.7 °C 1.9 °C 980.9 hPa NNW 16.6 km/h 35.6 km/h 95 % 2.0 mm
22:16 2.3 °C 1.6 °C 980.9 hPa NNW 17.2 km/h 32.3 km/h 95 % 2.0 mm
22:21 1.9 °C 1.2 °C 980.9 hPa NNW 28.8 km/h 31.4 km/h 95 % 2.0 mm
22:26 1.6 °C 0.8 °C 981.9 hPa NNW 14.0 km/h 28.8 km/h 95 % 1.8 mm
22:31 1.4 °C 0.8 °C 981.9 hPa North 14.0 km/h 22.7 km/h 96 % 1.8 mm
22:36 1.3 °C 0.8 °C 981.9 hPa North 14.0 km/h 16.6 km/h 97 % 1.5 mm
22:41 1.3 °C 0.8 °C 983.0 hPa North 17.2 km/h 17.2 km/h 97 % 1.3 mm
22:46 1.2 °C 0.8 °C 983.0 hPa North 17.2 km/h 17.2 km/h 97 % 1.0 mm
22:51 1.3 °C 1.0 °C 983.0 hPa North 17.2 km/h 17.2 km/h 98 % 1.0 mm
22:56 1.4 °C 1.1 °C 984.0 hPa North 17.2 km/h 17.2 km/h 98 % 1.0 mm
23:01 1.4 °C 1.2 °C 984.0 hPa North 17.2 km/h 17.2 km/h 98 % 0.0 mm
23:06 1.6 °C 1.3 °C 984.0 hPa North 17.2 km/h 17.2 km/h 98 % 0.0 mm
23:11 1.7 °C 1.4 °C 984.0 hPa NNW 20.9 km/h 20.9 km/h 98 % 0.0 mm
23:16 1.9 °C 1.6 °C 984.0 hPa WNW 17.2 km/h 32.0 km/h 98 % 0.0 mm
23:21 1.9 °C 1.6 °C 984.0 hPa NNW 32.0 km/h 32.0 km/h 98 % 0.0 mm
23:26 1.9 °C 1.7 °C 987.0 hPa WNW 25.9 km/h 36.7 km/h 98 % 0.0 mm
23:31 1.9 °C 1.7 °C 987.0 hPa NNE 13.0 km/h 36.7 km/h 98 % 0.0 mm
23:36 2.1 °C 1.8 °C 987.0 hPa North 30.2 km/h 42.8 km/h 98 % 0.0 mm
23:41 2.1 °C 1.8 °C 987.0 hPa WNW 28.8 km/h 42.8 km/h 98 % 0.0 mm
23:46 2.1 °C 1.8 °C 987.0 hPa NNW 12.6 km/h 35.6 km/h 98 % 0.0 mm
23:51 2.1 °C 1.8 °C 987.0 hPa WNW 34.6 km/h 41.7 km/h 98 % 0.0 mm
23:57 2.1 °C 1.8 °C 989.1 hPa North 13.7 km/h 41.7 km/h 98 % 0.0 mm
Le Gheer Warneton
Courtoisie de Weather Underground - 2.25 mb

Mise a jour : 17/12/2017 22:29:12
Généré par Cumulus 1.9.4 (1099)